STARLINK-36464, 67428

Orbit data source: Space-Track

STARLINK-36464, 67428 is a payload satellite owned by SpaceX/Seattle (US) in LEO that was launched on Mon, 12 Jan 2026 UTC via an FALCON 9 launch vehicle from the Air Force Eastern Test Range (AFETR). Payload-class satellites include a variety of spacecraft equipped with specific instruments for various scientific and technological missions. These include communications satellites like Starlink; space stations such as the ISS; scientific satellites like the Hubble; Earth observation satellites from companies like Planet Labs, Umbra, and HawkEye 360; GPS; miniature CubeSats for education and research; and military/defense satellites.

Loading next visibility...
Identifier
67428, 2026-005AA
Orbit
LEO
Country
Flag of USUS
Related business
Manufacturer
SpaceX/Seattle
Mission
Operational Commercial Communications
Bus & Motor
STARLINK V2MO, Unknown motor
Mass
575 kg wet, ~530 kg dry
Launch date (UTC)
2026-01-12 (5 months ago)
Launch vehicle
FALCON 9
Launch site
Air Force Eastern Test Range (AFETR)
Object type
Payload
Rocket body
Debris
Shape & HBR
Box + 2 Pan, 17.7 m
Radar Cross Section
36.964 m², Large (>1 m²)

Expand to show TLE details & history
Last TLE update: 20 hours ago

TLE from 20 hours ago
0 STARLINK-36464
1 67428U 26005AA  26170.99687598  .00013946  00000-0  51516-3 0  9991
2 67428  42.9987  20.1528 0002041 276.8868  83.1751 15.27591411 24331
Epoch: 2026-06-19T23:55Z
TLE epoch observation values (Epoch: 2026-06-19T23:55:30.084Z)
Latitude
-0.00005°
Longitude
113.05956°
Altitude
482.624 km
Speed
7.626 km/s
True Right ascension
01h 20m 36s
True Declination
0° 00' 00"
Sunlit
Object was in daylight at epoch
Visualization orbit readout
Latitude
Unknown
Longitude
Unknown
Altitude
Unknown
Speed
Unknown
Apparent Right ascension
Unknown
Apparent Declination
Unknown
Sunlit
N/A
Visualization observer readout
Local Sidereal Time
07:12:46
Azimuth
Unknown
Elevation
Unknown
Doppler factor
Unknown
Orbital elements
Apogee altitude
486.361 km
Perigee altitude
483.56 km
Semi-major axis
6,863.097 km
Eccentricity
0.0002
Inclination
42.9987°
RAAN
20.1528°
Arg. of periapsis
276.8868°
True anomaly
83.19832°
Mean anomaly
83.1751°
Eccentric anomaly
83.18671°
Mean motion
3.81736 °/min
Orbital period
94.31 mins
BSTAR
0.00051516
Loading maneuver chart data...
Computing Atmospheric mass density...
Loading historical data...
Loading historical data...
Loading historical data...
Loading historical data...
Loading historical data...
Loading historical data...
Loading historical data...

Documentation

Showing up to 5 results
|